Tracking 19792 objects as of 16-Jul-2019
HD Live streaming from Space Station
objects crossing your sky now

SL-12 DEB

Track SL-12 DEB now!
10-day predictions


NORAD ID: 27919
Int'l Code: 1987-079AC
Perigee: 550.2 km
Apogee: 14,669.3 km
Inclination: 64.7 °
Period: 274.2 minutes
Semi major axis: 13980 km
RCS: 0.0784 m2 (small)
Launch date: September 16, 1987
Source: Commonwealth of Independent States (former USSR) (CIS)
Launch site: TYURATAM MISSILE AND SPACE COMPLEX (TTMTR)

Note: This is SATELLITE DEBRIS
aabbcc
Your satellite tracking list
Your tracking list is empty




NASA's NSSDC Master Catalog

Two Line Element Set (TLE):
1 27919U 87079AC  11123.87657761 +.00000061 +00000-0 +10000-3 0  9995
2 27919 064.6508 080.5045 5049467 297.3805 020.4999 05.25179461131312
Source of the keplerian elements: AFSPC